Location: Unspecified
(0.0000°N, 0.0000°E)
Time: 10:37:31
(UTC+02:00)

AO-40 - Visible Passes

Search period start: 28 August 2016 00:00
Search period end: 07 September 2016 00:00
Orbit: 977 x 58843 km, 7.5° (Epoch: 27 August)

Date Brightness Start Highest point End Pass type
(mag) Time Alt. Az. Time Alt. Az. Time Alt. Az.
28 Aug ? 05:54:02 10° E 12:25:25 86° S 18:07:44 10° E visible
29 Aug ? 07:26:32 10° E 11:15:05 39° E 12:43:18 10° E visible
31 Aug ? 03:59:44 70° NNE 03:59:44 70° NNE 17:17:46 10° W visible
31 Aug ? 22:35:55 10° W 22:41:51 44° W 22:41:51 44° W visible
01 Sep ? 05:45:19 10° E 12:17:57 86° S 17:39:59 10° E visible
02 Sep ? 07:19:57 10° E 10:47:22 35° E 12:12:49 10° E visible
04 Sep ? 03:33:53 63° NE 03:33:53 63° NE 17:10:01 10° W visible
04 Sep ? 22:07:05 10° W 22:15:26 73° W 22:15:26 73° W visible
05 Sep ? 05:36:32 10° E 12:10:53 85° S 17:12:13 10° E visible
06 Sep ? 07:13:57 10° E 10:19:44 31° E 11:41:46 10° E visible
